ProjectID,Date,Electric Generation,Electric Utility Import,Facility Electric Load
,YYYY-MM-DD,kW,kW,kW
282,2015-09-01,0.0,0.0,0.0
282,2015-09-02,0.0,0.0,0.0
282,2015-09-03,0.0,0.0,0.0
282,2015-09-04,0.0,0.0,0.0
282,2015-09-05,0.0,0.0,0.0
282,2015-09-06,0.0,0.0,0.0
282,2015-09-07,0.0,0.0,0.0
282,2015-09-08,0.0,0.0,0.0
282,2015-09-09,393.625,540.75,934.375
282,2015-09-10,0.0,391.2708333333333,391.2708333333333
282,2015-09-11,0.0,367.0833333333333,367.0833333333333
282,2015-09-12,0.0,0.0,0.0
282,2015-09-13,0.0,0.0,0.0
282,2015-09-14,0.0,361.8333333333333,361.8333333333333
282,2015-09-15,0.0,365.4583333333333,365.4583333333333
282,2015-09-16,0.0,377.25,377.25
282,2015-09-17,785.75,369.4166666666667,1155.1666666666667
282,2015-09-18,546.0572916666666,375.8333333333333,921.890625
282,2015-09-19,0.0,0.0,0.0
282,2015-09-20,0.0,0.0,0.0
282,2015-09-21,675.725,374.0833333333333,1049.8083333333334
282,2015-09-22,692.4541666666668,374.2916666666667,1066.7458333333334
282,2015-09-23,681.0708333333336,362.875,1043.9458333333337
282,2015-09-24,739.6635416666667,367.8333333333333,1107.496875
282,2015-09-25,635.0645833333334,363.4166666666667,998.48125
282,2015-09-26,0.0,0.0,0.0
282,2015-09-27,0.0,0.0,0.0
282,2015-09-28,770.5218749999999,435.375,1205.896875
282,2015-09-29,0.0,442.0,442.0
282,2015-09-30,0.0,455.9791666666667,455.9791666666667
282,2015-10-01,590.1208333333335,451.3333333333333,1041.4541666666669
282,2015-10-02,596.9927083333333,450.5833333333333,1047.5760416666667
282,2015-10-03,0.0,25.833333333333332,25.833333333333332
282,2015-10-04,0.0,0.0,0.0
282,2015-10-05,603.8395833333333,483.8333333333333,1087.6729166666667
282,2015-10-06,683.5812500000001,482.4166666666667,1165.9979166666667
282,2015-10-07,620.8562500000002,499.5416666666667,1120.3979166666668
282,2015-10-08,605.8416666666666,495.4583333333333,1101.3
282,2015-10-09,587.4427083333333,486.2916666666667,1073.734375
282,2015-10-10,0.0,24.0,24.0
282,2015-10-11,0.0,0.0,0.0
282,2015-10-12,733.7041666666668,446.875,1180.5791666666669
282,2015-10-13,633.5958333333333,598.0416666666666,1231.6374999999998
282,2015-10-14,608.4447916666668,509.125,1117.5697916666668
282,2015-10-15,589.3020833333334,526.0,1115.3020833333335
282,2015-10-16,593.5979166666668,490.0416666666667,1083.6395833333336
282,2015-10-17,0.0,23.583333333333332,23.583333333333332
282,2015-10-18,0.0,0.0,0.0
282,2015-10-19,716.2312499999999,422.5,1138.7312499999998
282,2015-10-20,704.4291666666664,460.2083333333333,1164.6374999999998
282,2015-10-21,701.8885416666666,443.9166666666667,1145.8052083333332
282,2015-10-22,670.0999999999999,438.7083333333333,1108.8083333333332
282,2015-10-23,665.8927083333334,389.9166666666667,1055.809375
282,2015-10-24,0.0,0.0,0.0
282,2015-10-25,0.0,0.0,0.0
282,2015-10-26,590.0968749999998,0.0,590.0968749999998
282,2015-10-27,695.5489583333333,151.25,846.7989583333333
282,2015-10-28,685.6500000000001,450.75,1136.4
282,2015-10-29,678.0177083333334,437.7083333333333,1115.7260416666668
282,2015-10-30,696.28125,453.375,1149.65625
282,2015-10-31,0.0,740.4583333333334,740.4583333333334
282,2015-11-01,0.0,24.083333333333332,24.083333333333332
282,2015-11-02,700.0552083333333,419.125,1119.1802083333332
282,2015-11-03,725.4895833333334,455.8333333333333,1181.3229166666667
282,2015-11-04,660.590625,442.125,1102.715625
282,2015-11-05,652.6104166666668,440.6666666666667,1093.2770833333334
282,2015-11-06,664.7760416666667,430.0,1094.7760416666667
282,2015-11-07,0.0,675.0416666666666,675.0416666666666
282,2015-11-08,0.0,678.6666666666666,678.6666666666666
282,2015-11-09,692.4656249999999,443.0,1135.4656249999998
282,2015-11-10,0.0,26.083333333333332,26.083333333333332
282,2015-11-11,666.0354166666667,425.0416666666667,1091.0770833333333
282,2015-11-12,667.4145833333333,473.4166666666667,1140.83125
282,2015-11-13,671.4875000000001,454.6666666666667,1126.1541666666667
282,2015-11-14,0.0,782.0,782.0
282,2015-11-15,0.0,775.5416666666666,775.5416666666666
282,2015-11-16,747.5802083333333,451.2083333333333,1198.7885416666666
282,2015-11-17,694.8864583333333,454.4166666666667,1149.303125
282,2015-11-18,668.7833333333332,464.25,1133.0333333333333
282,2015-11-19,695.6614583333335,466.875,1162.5364583333335
282,2015-11-20,681.6916666666666,451.0833333333333,1132.7749999999999
282,2015-11-21,0.0,734.125,734.125
282,2015-11-22,0.0,706.5833333333334,706.5833333333334
282,2015-11-23,739.1010416666668,458.9583333333333,1198.059375
282,2015-11-24,674.0135416666667,492.25,1166.2635416666667
282,2015-11-25,343.26875,470.625,813.89375
282,2015-11-26,0.0,771.1666666666666,771.1666666666666
282,2015-11-27,177.27395833333333,576.9583333333334,754.2322916666667
282,2015-11-28,0.0,772.5,772.5
282,2015-11-29,0.0,783.4166666666666,783.4166666666666
282,2015-11-30,249.16979166666667,729.75,978.9197916666667
282,2015-12-01,697.1531249999999,451.6666666666667,1148.8197916666666
282,2015-12-02,696.1291666666666,467.125,1163.2541666666666
282,2015-12-03,682.5895833333333,494.375,1176.9645833333334
282,2015-12-04,656.9979166666667,481.0833333333333,1138.08125
282,2015-12-05,0.0,794.7916666666666,794.7916666666666
282,2015-12-06,0.0,778.1666666666666,778.1666666666666
282,2015-12-07,714.828125,461.625,1176.453125
282,2015-12-08,640.6927083333334,482.5416666666667,1123.234375
282,2015-12-09,651.790625,472.5833333333333,1124.3739583333333
282,2015-12-10,670.8604166666668,474.25,1145.1104166666669
282,2015-12-11,644.1291666666666,479.375,1123.5041666666666
282,2015-12-12,0.0,772.6666666666666,772.6666666666666
282,2015-12-13,0.0,766.9166666666666,766.9166666666666
282,2015-12-14,663.6156249999999,460.9166666666667,1124.5322916666667
282,2015-12-15,689.2197916666668,453.875,1143.0947916666669
282,2015-12-16,682.3739583333335,469.5,1151.8739583333336
282,2015-12-17,671.2989583333333,466.5416666666667,1137.840625
282,2015-12-18,644.8125,467.4583333333333,1112.2708333333333
282,2015-12-19,0.0,798.2083333333334,798.2083333333334
282,2015-12-20,0.0,794.5833333333334,794.5833333333334
282,2015-12-21,602.5083333333334,511.8333333333333,1114.3416666666667
282,2015-12-22,685.8114583333335,463.375,1149.1864583333336
282,2015-12-23,630.4625,470.9583333333333,1101.4208333333333
282,2015-12-24,720.7260416666667,480.75,1201.4760416666668
282,2015-12-25,0.0,743.625,743.625
282,2015-12-26,0.0,763.375,763.375
282,2015-12-27,0.0,754.25,754.25
282,2015-12-28,652.2500000000001,446.0833333333333,1098.3333333333335
282,2015-12-29,618.6166666666667,468.8333333333333,1087.45
282,2015-12-30,588.9468750000002,469.9166666666667,1058.8635416666668
282,2015-12-31,568.5906249999999,462.875,1031.4656249999998
282,2016-01-01,0.0,783.875,783.875
282,2016-01-02,0.0,787.7916666666666,787.7916666666666
282,2016-01-03,0.0,782.75,782.75
282,2016-01-04,664.0656250000001,464.625,1128.6906250000002
282,2016-01-05,570.7333333333332,565.75,1136.4833333333331
282,2016-01-06,674.6177083333333,471.0,1145.6177083333332
282,2016-01-07,627.8947916666667,497.375,1125.2697916666666
282,2016-01-08,620.6520833333333,484.0833333333333,1104.7354166666667
282,2016-01-09,0.0,848.3333333333334,848.3333333333334
282,2016-01-10,0.0,770.7916666666666,770.7916666666666
282,2016-01-11,671.0354166666667,454.0416666666667,1125.0770833333333
282,2016-01-12,642.89375,488.8333333333333,1131.7270833333332
282,2016-01-13,629.76875,508.1666666666667,1137.9354166666667
282,2016-01-14,625.7447916666666,511.2083333333333,1136.953125
282,2016-01-15,618.1104166666668,496.5833333333333,1114.6937500000001
282,2016-01-16,0.0,798.75,798.75
282,2016-01-17,0.0,789.8333333333334,789.8333333333334
282,2016-01-18,271.01458333333335,597.9583333333334,868.9729166666667
282,2016-01-19,657.6333333333334,510.0833333333333,1167.7166666666667
282,2016-01-20,684.4968749999999,479.1666666666667,1163.6635416666666
282,2016-01-21,665.0312500000001,494.5833333333333,1159.6145833333335
282,2016-01-22,639.0927083333332,485.3333333333333,1124.4260416666666
282,2016-01-23,0.0,809.2083333333334,809.2083333333334
282,2016-01-24,0.0,799.6666666666666,799.6666666666666
282,2016-01-25,655.1927083333334,473.7083333333333,1128.9010416666667
282,2016-01-26,621.5104166666666,488.625,1110.1354166666665
282,2016-01-27,635.2322916666666,468.0416666666667,1103.2739583333332
282,2016-01-28,652.0489583333334,474.625,1126.6739583333333
282,2016-01-29,628.540625,469.5,1098.040625
282,2016-01-30,2.2166666666666663,818.75,820.9666666666667
282,2016-01-31,0.0,783.5416666666666,783.5416666666666
282,2016-02-01,654.196875,452.4583333333333,1106.6552083333333
282,2016-02-02,673.1604166666667,462.5833333333333,1135.74375
282,2016-02-03,634.5645833333334,473.0833333333333,1107.6479166666668
282,2016-02-04,670.7875,465.625,1136.4125
282,2016-02-05,589.59375,495.0416666666667,1084.6354166666667
282,2016-02-06,0.0,792.6666666666666,792.6666666666666
282,2016-02-07,0.0,796.4166666666666,796.4166666666666
282,2016-02-08,649.0791666666665,466.3333333333333,1115.4125
282,2016-02-09,650.80625,472.9166666666667,1123.7229166666666
282,2016-02-10,636.1020833333333,466.625,1102.7270833333332
282,2016-02-11,613.9041666666668,474.625,1088.5291666666667
282,2016-02-12,637.7427083333332,483.5833333333333,1121.3260416666665
282,2016-02-13,0.0,840.7916666666666,840.7916666666666
282,2016-02-14,0.0,833.9166666666666,833.9166666666666
282,2016-02-15,0.0,831.9166666666666,831.9166666666666
282,2016-02-16,668.14375,468.0,1136.14375
282,2016-02-17,604.1354166666666,491.8333333333333,1095.96875
282,2016-02-18,646.771875,479.2083333333333,1125.9802083333334
282,2016-02-19,621.5312500000001,492.75,1114.28125
282,2016-02-20,0.0,776.625,776.625
282,2016-02-21,0.0,773.2083333333334,773.2083333333334
282,2016-02-22,729.9343750000002,448.75,1178.6843750000003
282,2016-02-23,633.3406250000002,474.7916666666667,1108.1322916666668
282,2016-02-24,579.9583333333334,521.0833333333334,1101.0416666666667
282,2016-02-25,639.1385416666666,462.3333333333333,1101.471875
282,2016-02-26,625.0677083333333,481.7916666666667,1106.859375
282,2016-02-27,0.0,475.7916666666667,475.7916666666667
282,2016-02-28,0.0,733.3333333333334,733.3333333333334
282,2016-02-29,698.2260416666668,437.8333333333333,1136.059375
282,2016-03-01,658.0802083333334,464.2083333333333,1122.2885416666668
282,2016-03-02,628.6552083333333,462.5833333333333,1091.2385416666666
282,2016-03-03,591.3322916666667,505.7083333333333,1097.040625
282,2016-03-04,610.9541666666667,468.375,1079.3291666666667
282,2016-03-05,0.0,775.1666666666666,775.1666666666666
282,2016-03-06,0.0,754.4583333333334,754.4583333333334
282,2016-03-07,695.0291666666667,451.9166666666667,1146.9458333333334
282,2016-03-08,762.0187500000001,458.9583333333333,1220.9770833333334
282,2016-03-09,797.3395833333333,466.4583333333333,1263.7979166666667
282,2016-03-10,786.9489583333333,459.5,1246.4489583333334
282,2016-03-11,688.1697916666667,453.5,1141.6697916666667
282,2016-03-12,0.0,738.8333333333334,738.8333333333334
282,2016-03-13,0.0,682.7916666666666,682.7916666666666
282,2016-03-14,624.9802083333333,439.3333333333333,1064.3135416666667
282,2016-03-15,690.6729166666665,452.4166666666667,1143.0895833333332
282,2016-03-16,761.2447916666666,470.0416666666667,1231.2864583333333
282,2016-03-17,697.1770833333331,468.875,1166.052083333333
282,2016-03-18,646.7520833333332,466.8333333333333,1113.5854166666666
282,2016-03-19,0.0,792.2083333333334,792.2083333333334
282,2016-03-20,0.0,803.6666666666666,803.6666666666666
282,2016-03-21,660.525,503.9166666666667,1164.4416666666666
282,2016-03-22,608.9125,520.2916666666666,1129.2041666666667
282,2016-03-23,701.8614583333332,464.7083333333333,1166.5697916666666
282,2016-03-24,641.9677083333332,460.2083333333333,1102.1760416666666
282,2016-03-25,651.75,463.3333333333333,1115.0833333333333
282,2016-03-26,0.0,721.6666666666666,721.6666666666666
282,2016-03-27,0.0,697.7083333333334,697.7083333333334
282,2016-03-28,661.7916666666667,446.8333333333333,1108.625
282,2016-03-29,640.5552083333332,477.8333333333333,1118.3885416666665
282,2016-03-30,596.3375,540.9166666666666,1137.2541666666666
282,2016-03-31,695.0625,505.5833333333333,1200.6458333333333
282,2016-04-01,702.0729166666666,506.0833333333333,1208.15625
282,2016-04-02,0.0,767.3333333333334,767.3333333333334
282,2016-04-03,0.0,791.6666666666666,791.6666666666666
282,2016-04-04,602.559375,494.8333333333333,1097.3927083333333
282,2016-04-05,620.7604166666666,531.4166666666666,1152.1770833333333
282,2016-04-06,619.1114583333334,496.0833333333333,1115.1947916666668
282,2016-04-07,639.6031250000001,502.125,1141.728125
282,2016-04-08,588.2416666666668,515.0833333333334,1103.3250000000003
282,2016-04-09,0.0,791.75,791.75
282,2016-04-10,0.0,778.6666666666666,778.6666666666666
282,2016-04-11,689.5447916666666,483.75,1173.2947916666667
282,2016-04-12,651.5177083333333,502.125,1153.6427083333333
282,2016-04-13,668.7343749999999,481.9583333333333,1150.6927083333333
282,2016-04-14,669.5760416666666,503.9166666666667,1173.4927083333332
282,2016-04-15,670.7177083333333,476.875,1147.5927083333333
282,2016-04-16,0.0,740.2916666666666,740.2916666666666
282,2016-04-17,0.0,728.5833333333334,728.5833333333334
282,2016-04-18,749.363541666667,538.7083333333334,1288.0718750000003
282,2016-04-19,716.4468750000001,495.5416666666667,1211.9885416666668
282,2016-04-20,632.1375,490.5833333333333,1122.7208333333333
282,2016-04-21,655.8562499999999,442.875,1098.7312499999998
282,2016-04-22,734.1843749999998,433.625,1167.8093749999998
282,2016-04-23,0.0,504.3333333333333,504.3333333333333
282,2016-04-24,0.0,647.9583333333334,647.9583333333334
282,2016-04-25,628.9125,468.4583333333333,1097.3708333333334
282,2016-04-26,615.4687499999999,475.7916666666667,1091.2604166666665
282,2016-04-27,589.3583333333332,470.9583333333333,1060.3166666666666
282,2016-04-28,588.1947916666667,479.0416666666667,1067.2364583333333
282,2016-04-29,590.415625,477.0,1067.415625
282,2016-04-30,0.0,727.7916666666666,727.7916666666666
282,2016-05-01,0.0,711.4583333333334,711.4583333333334
282,2016-05-02,618.1166666666668,476.8333333333333,1094.95
282,2016-05-03,617.4520833333335,480.2083333333333,1097.6604166666668
282,2016-05-04,0.0,25.166666666666668,25.166666666666668
282,2016-05-05,581.0020833333334,443.375,1024.3770833333333
282,2016-05-06,586.9343749999999,468.375,1055.3093749999998
282,2016-05-07,0.0,694.9583333333334,694.9583333333334
282,2016-05-08,0.0,680.25,680.25
282,2016-05-09,672.5385416666667,474.5416666666667,1147.0802083333333
282,2016-05-10,494.7552083333334,656.5,1151.2552083333335
282,2016-05-11,677.6395833333332,486.1666666666667,1163.8062499999999
282,2016-05-12,660.7302083333333,456.9583333333333,1117.6885416666667
282,2016-05-13,566.0541666666667,469.0,1035.0541666666668
282,2016-05-14,0.0,674.375,674.375
282,2016-05-15,0.0,669.0833333333334,669.0833333333334
282,2016-05-16,595.9843749999999,481.6666666666667,1077.6510416666665
282,2016-05-17,573.1604166666666,469.75,1042.9104166666666
282,2016-05-18,546.0083333333333,498.5833333333333,1044.5916666666667
282,2016-05-19,578.046875,481.7083333333333,1059.7552083333333
282,2016-05-20,633.1041666666665,474.0833333333333,1107.1874999999998
282,2016-05-21,13.296875,700.6666666666666,713.9635416666666
282,2016-05-22,0.0,689.75,689.75
282,2016-05-23,730.3312499999998,458.625,1188.9562499999997
282,2016-05-24,637.3104166666668,444.0416666666667,1081.3520833333334
282,2016-05-25,646.7197916666665,510.375,1157.0947916666664
282,2016-05-26,718.2947916666667,464.5833333333333,1182.878125
282,2016-05-27,841.8499999999999,446.9166666666667,1288.7666666666667
282,2016-05-28,0.0,682.0833333333334,682.0833333333334
282,2016-05-29,0.0,680.5833333333334,680.5833333333334
282,2016-05-30,0.0,801.6666666666666,801.6666666666666
282,2016-05-31,948.9968749999999,438.4166666666667,1387.4135416666666
282,2016-06-01,879.0031249999997,448.75,1327.7531249999997
282,2016-06-02,839.6531249999999,448.375,1288.0281249999998
282,2016-06-03,626.746875,450.9166666666667,1077.6635416666668
282,2016-06-04,0.0,687.3333333333334,687.3333333333334
282,2016-06-05,0.0,676.875,676.875
282,2016-06-06,849.8989583333332,434.625,1284.5239583333332
282,2016-06-07,810.7156249999999,441.4583333333333,1252.1739583333333
282,2016-06-08,605.1010416666667,454.8333333333333,1059.934375
282,2016-06-09,255.3479166666667,886.0,1141.3479166666666
282,2016-06-10,585.225,440.1666666666667,1025.3916666666667
282,2016-06-11,0.0,687.4166666666666,687.4166666666666
282,2016-06-12,0.0,684.375,684.375
282,2016-06-13,700.8114583333332,458.7083333333333,1159.5197916666666
282,2016-06-14,659.253125,459.0,1118.253125
282,2016-06-15,740.1010416666668,451.5833333333333,1191.684375
282,2016-06-16,796.2583333333333,443.125,1239.3833333333332
282,2016-06-17,756.00625,446.6666666666667,1202.6729166666667
282,2016-06-18,0.0,696.7916666666666,696.7916666666666
282,2016-06-19,0.0,678.2916666666666,678.2916666666666
282,2016-06-20,944.7802083333335,426.6666666666667,1371.446875
282,2016-06-21,903.8489583333335,436.7916666666667,1340.6406250000002
282,2016-06-22,771.5833333333334,448.5416666666667,1220.125
282,2016-06-23,779.8145833333334,452.2083333333333,1232.0229166666668
282,2016-06-24,810.7760416666665,440.25,1251.0260416666665
282,2016-06-25,0.0,693.2916666666666,693.2916666666666
282,2016-06-26,0.0,684.75,684.75
282,2016-06-27,940.0500000000001,444.5,1384.5500000000002
282,2016-06-28,880.3697916666666,453.25,1333.6197916666665
282,2016-06-29,837.640625,452.0,1289.640625
282,2016-06-30,794.4989583333335,476.375,1270.8739583333336
282,2016-07-01,789.7979166666668,462.625,1252.4229166666669
282,2016-07-02,0.0,689.5833333333334,689.5833333333334
282,2016-07-03,0.0,685.5,685.5
282,2016-07-04,0.0,807.5,807.5
282,2016-07-05,953.344791666667,437.75,1391.0947916666669
282,2016-07-06,865.1270833333333,469.625,1334.7520833333333
282,2016-07-07,734.7093749999998,758.25,1492.959375
282,2016-07-08,891.8135416666664,443.75,1335.5635416666664
282,2016-07-09,0.0,783.6666666666666,783.6666666666666
282,2016-07-10,0.0,693.75,693.75
282,2016-07-11,802.1822916666666,481.6666666666667,1283.8489583333333
282,2016-07-12,857.5510416666666,468.8333333333333,1326.3843749999999
282,2016-07-13,834.4468749999997,467.625,1302.0718749999996
282,2016-07-14,832.7281250000001,467.75,1300.478125
282,2016-07-15,821.6416666666665,458.9583333333333,1280.6
282,2016-07-16,0.0,720.3333333333334,720.3333333333334
282,2016-07-17,0.0,717.25,717.25
282,2016-07-18,438.49791666666664,1104.7083333333333,1543.20625
282,2016-07-19,856.5885416666666,525.25,1381.8385416666665
282,2016-07-20,757.9458333333333,568.875,1326.8208333333332
282,2016-07-21,571.7458333333333,714.5833333333334,1286.3291666666667
282,2016-07-22,716.0999999999999,687.875,1403.975
282,2016-07-23,0.0,714.625,714.625
282,2016-07-24,0.0,709.5833333333334,709.5833333333334
282,2016-07-25,798.5572916666664,814.6666666666666,1613.223958333333
282,2016-07-26,808.5302083333332,668.25,1476.7802083333331
282,2016-07-27,923.7385416666666,443.4166666666667,1367.1552083333333
282,2016-07-28,710.8343750000003,603.4583333333334,1314.2927083333336
282,2016-07-29,871.553125,345.4166666666667,1216.9697916666667
282,2016-07-30,0.0,0.0,0.0
282,2016-07-31,0.0,0.0,0.0
282,2016-08-01,874.2354166666668,0.0,874.2354166666668
282,2016-08-02,825.8677083333336,0.0,825.8677083333336
282,2016-08-03,785.0187499999998,0.0,785.0187499999998
282,2016-08-04,775.9802083333333,0.0,775.9802083333333
282,2016-08-05,798.4083333333333,0.0,798.4083333333333
282,2016-08-06,5.277083333333334,0.0,5.277083333333334
282,2016-08-07,0.0,0.0,0.0
282,2016-08-08,972.5635416666668,0.0,972.5635416666668
282,2016-08-09,966.6718750000001,0.0,966.6718750000001
282,2016-08-10,956.2937499999999,0.0,956.2937499999999
282,2016-08-11,971.4031249999999,0.0,971.4031249999999
282,2016-08-12,1011.5395833333332,0.0,1011.5395833333332
282,2016-08-13,0.0,0.0,0.0
282,2016-08-14,0.0,0.0,0.0
282,2016-08-15,1214.4239583333333,0.0,1214.4239583333333
282,2016-08-16,948.8770833333333,0.0,948.8770833333333
282,2016-08-17,912.1541666666667,0.0,912.1541666666667
282,2016-08-18,846.1395833333332,0.0,846.1395833333332
282,2016-08-19,841.7281250000002,0.0,841.7281250000002
282,2016-08-20,0.0,0.0,0.0
282,2016-08-21,0.0,0.0,0.0
282,2016-08-22,957.353125,0.0,957.353125
282,2016-08-23,745.5875,0.0,745.5875
282,2016-08-24,831.3197916666667,0.0,831.3197916666667
282,2016-08-25,870.8968749999999,0.0,870.8968749999999
282,2016-08-26,830.265625,0.0,830.265625
282,2016-08-27,0.0,0.0,0.0
282,2016-08-28,0.0,0.0,0.0
282,2016-08-29,1067.7104166666666,0.0,1067.7104166666666
282,2016-08-30,860.646875,0.0,860.646875
282,2016-08-31,822.5281249999999,0.0,822.5281249999999
282,2016-09-01,814.7416666666667,0.0,814.7416666666667
282,2016-09-02,722.6895833333334,0.0,722.6895833333334
282,2016-09-03,0.0,0.0,0.0
282,2016-09-04,0.0,0.0,0.0
282,2016-09-05,0.0,0.0,0.0
282,2016-09-06,946.2156249999999,0.0,946.2156249999999
282,2016-09-07,818.4322916666666,0.0,818.4322916666666
282,2016-09-08,844.9343749999999,0.0,844.9343749999999
282,2016-09-09,834.0187499999998,0.0,834.0187499999998
282,2016-09-10,0.0,0.0,0.0
282,2016-09-11,0.0,0.0,0.0
282,2016-09-12,808.0333333333334,0.0,808.0333333333334
282,2016-09-13,774.1791666666667,0.0,774.1791666666667
282,2016-09-14,845.8489583333335,0.0,845.8489583333335
282,2016-09-15,637.6552083333332,0.0,637.6552083333332
282,2016-09-16,625.8343749999999,0.0,625.8343749999999
282,2016-09-17,0.0,0.0,0.0
282,2016-09-18,0.0,0.0,0.0
282,2016-09-19,781.8989583333333,124.83333333333333,906.7322916666667
282,2016-09-20,792.7312499999999,461.7083333333333,1254.4395833333333
282,2016-09-21,768.0583333333334,451.3333333333333,1219.3916666666667
282,2016-09-22,724.1489583333333,455.0416666666667,1179.190625
282,2016-09-23,700.2510416666668,456.5833333333333,1156.8343750000001
282,2016-09-24,0.0,710.7916666666666,710.7916666666666
282,2016-09-25,0.0,686.5833333333334,686.5833333333334
282,2016-09-26,605.6447916666667,440.375,1046.0197916666666
282,2016-09-27,556.90625,553.2916666666666,1110.1979166666665
282,2016-09-28,625.5406250000001,447.9166666666667,1073.4572916666668
282,2016-09-29,561.7479166666666,442.8333333333333,1004.58125
282,2016-09-30,506.8947916666668,434.9166666666667,941.8114583333335
282,2016-10-01,0.0,687.4166666666666,687.4166666666666
282,2016-10-02,0.0,680.2916666666666,680.2916666666666
282,2016-10-03,552.2552083333334,447.25,999.5052083333334
282,2016-10-04,562.1333333333333,448.6666666666667,1010.8
282,2016-10-05,577.0791666666668,455.4166666666667,1032.4958333333334
282,2016-10-06,574.1645833333333,453.625,1027.7895833333332
282,2016-10-07,511.528125,483.0833333333333,994.6114583333333
282,2016-10-08,0.0,679.9166666666666,679.9166666666666
282,2016-10-09,0.0,673.5833333333334,673.5833333333334
282,2016-10-10,0.0,874.2083333333334,874.2083333333334
282,2016-10-11,585.4885416666667,457.2916666666667,1042.7802083333333
282,2016-10-12,567.453125,460.9166666666667,1028.3697916666667
282,2016-10-13,593.0864583333334,469.1666666666667,1062.2531250000002
282,2016-10-14,571.8156250000001,471.0416666666667,1042.8572916666667
282,2016-10-15,0.0,703.1666666666666,703.1666666666666
282,2016-10-16,0.0,665.0416666666666,665.0416666666666
282,2016-10-17,734.7781250000002,435.5416666666667,1170.3197916666668
282,2016-10-18,762.5510416666667,450.5,1213.0510416666666
282,2016-10-19,732.0854166666668,445.4583333333333,1177.54375
282,2016-10-20,576.24375,451.875,1028.11875
282,2016-10-21,607.1989583333334,446.4166666666667,1053.6156250000001
282,2016-10-22,0.0,715.1666666666666,715.1666666666666
282,2016-10-23,0.0,745.2916666666666,745.2916666666666
282,2016-10-24,615.26875,470.5833333333333,1085.8520833333332